Location: Unspecified
(43.4680°N, 87.1740°E)
Time: 21:17:23
(UTC+00:00)

CBERS-1 - Pass Details

Date: 17 April 2021
Orbit: 768 x 778 km, 98.7° (Epoch: 12 May)

Event Time Altitude Azimuth Distance (km) Brightness Sun altitude
Rises 20:45:54 0° 13° (NNE) 3,255 8.2 -25.3°
Reaches altitude 10° 20:48:13 10° 14° (NNE) 2,322 7.3 -25.0°
Maximum altitude 20:53:21 89° 104° (ESE) 776 3.9 -24.3°
Enters shadow 20:54:08 65° 193° (SSW) 844 3.9 -24.2°
